Weather History for Marfa, TX

Change the Weather History Date:

Saturday, February 16, 2013

  Actual Average Record
Temperature  
Mean Temperature 36 °F -  
Max Temperature 59 °F 59 °F 84 °F (2014)
Min Temperature 12 °F 29 °F 12 °F (1998)
Degree Days  
Heating Degree Days 30    
Moisture  
Dew Point 14 °F    
Average Humidity 51    
Maximum Humidity 93    
Minimum Humidity 18    
Precipitation  
Precipitation 0.00 in - - ()
Sea Level Pressure  
Sea Level Pressure 30.35 in    
Wind  
Wind Speed 6 mph (West)    
Max Wind Speed 14 mph    
Max Gust Speed 26 mph    
Visibility 10 miles    
Events      
Averages and records for this station are not official NWS values.
T = Trace of Precipitation, MM = Missing Value Source: NWS Daily Summary

Daily Weather History Graph

Daily Weather History Graph

Search for Another Location

Airport:

Trip Planner

Search our weather history database for the weather conditions in past years. The results will help you decide how hot, cold, wet, or windy it might be!

Date:

Astronomy

Feb. 16, 2013 Rise Set
Actual Time 7:35 AM CST 6:45 PM CST
Civil Twilight 7:10 AM CST 7:09 PM CST
Nautical Twilight 6:42 AM CST 7:38 PM CST
Astronomical Twilight 6:14 AM CST 8:06 PM CST
Moon 11:20 AM CST (2/16) 12:18 AM CST (2/16)
Length of Visible Light 11h 59m
Length of Day
11h 10m
Waxing Crescent, 39% of the Moon is Illuminated
Feb 16
Waxing Crescent
Feb 17
First Quarter
Feb 25
Full
Mar 4
Last Quarter
Mar 11
New

Hourly Weather History & Observations

Time (CST) Temp. Windchill Dew Point Humidity Pressure Visibility Wind Dir Wind Speed Gust Speed Precip Events Conditions
12:15 AM 23.0 °F 13.9 °F 19.4 °F 86% 30.39 in 10.0 mi NW 8.1 mph - N/A   Clear
12:35 AM 23.0 °F 13.1 °F 19.4 °F 86% 30.40 in 10.0 mi NNW 9.2 mph - N/A   Clear
12:55 AM 24.8 °F 16.9 °F 21.2 °F 86% 30.39 in 10.0 mi North 6.9 mph - N/A   Clear
1:15 AM 21.2 °F 13.6 °F 19.4 °F 93% 30.40 in 10.0 mi North 5.8 mph - N/A   Clear
1:35 AM 21.2 °F 11.7 °F 19.4 °F 93% 30.40 in 10.0 mi North 8.1 mph - N/A   Clear
1:55 AM 21.2 °F 13.6 °F 19.4 °F 93% 30.40 in 10.0 mi North 5.8 mph - N/A   Clear
2:15 AM 21.2 °F 12.6 °F 17.6 °F 86% 30.40 in 10.0 mi NNW 6.9 mph - N/A   Clear
2:35 AM 21.2 °F 11.7 °F 17.6 °F 86% 30.41 in 10.0 mi NNW 8.1 mph - N/A   Clear
2:55 AM 19.4 °F 14.3 °F 15.8 °F 86% 30.41 in 10.0 mi NW 3.5 mph - N/A   Clear
3:15 AM 19.4 °F 6.0 °F 17.6 °F 93% 30.40 in 10.0 mi South 13.8 mph 26.5 mph N/A   Clear
3:35 AM 19.4 °F 12.8 °F 15.8 °F 86% 30.41 in 10.0 mi WSW 4.6 mph - N/A   Clear
3:55 AM 19.4 °F 11.5 °F 15.8 °F 86% 30.40 in 10.0 mi NNW 5.8 mph - N/A   Clear
4:15 AM 19.4 °F 9.5 °F 14.0 °F 80% 30.39 in 10.0 mi NNW 8.1 mph - N/A   Clear
4:35 AM 17.6 °F 9.3 °F 12.2 °F 79% 30.39 in 10.0 mi North 5.8 mph - N/A   Clear
4:55 AM 17.6 °F 12.3 °F 14.0 °F 86% 30.39 in 10.0 mi NE 3.5 mph - N/A   Clear
5:15 AM 17.6 °F - 14.0 °F 86% 30.40 in 10.0 mi Calm Calm - N/A   Clear
5:35 AM 15.8 °F 6.1 °F 10.4 °F 79% 30.39 in 10.0 mi NNE 6.9 mph - N/A   Clear
5:55 AM 15.8 °F 7.2 °F 10.4 °F 79% 30.39 in 10.0 mi NE 5.8 mph - N/A   Clear
6:15 AM 17.6 °F 8.2 °F 14.0 °F 86% 30.40 in 10.0 mi NE 6.9 mph - N/A   Clear
6:35 AM 15.8 °F 10.2 °F 12.2 °F 86% 30.40 in 10.0 mi NE 3.5 mph - N/A   Clear
6:55 AM 12.2 °F 6.1 °F 8.6 °F 85% 30.41 in 10.0 mi NNE 3.5 mph - N/A   Clear
7:15 AM 12.2 °F 4.3 °F 10.4 °F 92% 30.41 in 10.0 mi NNE 4.6 mph - N/A   Clear
7:35 AM 14.0 °F - 10.4 °F 86% 30.41 in 10.0 mi Calm Calm - N/A   Clear
7:55 AM 14.0 °F - 10.4 °F 86% 30.42 in 10.0 mi Calm Calm - N/A   Clear
8:15 AM 17.6 °F - 12.2 °F 79% 30.43 in 10.0 mi Calm Calm - N/A   Clear
8:35 AM 23.0 °F - 19.4 °F 86% 30.44 in 10.0 mi Calm Calm - N/A   Clear
8:55 AM 28.4 °F - 21.2 °F 74% 30.45 in 10.0 mi Calm Calm - N/A   Clear
9:15 AM 30.2 °F - 23.0 °F 75% 30.45 in 10.0 mi Calm Calm - N/A   Clear
9:35 AM 33.8 °F - 24.8 °F 70% 30.45 in 10.0 mi Calm Calm - N/A   Clear
9:55 AM 35.6 °F 32.8 °F 24.8 °F 65% 30.45 in 10.0 mi South 3.5 mph - N/A   Clear
10:15 AM 39.2 °F - 24.8 °F 56% 30.45 in 10.0 mi Calm Calm - N/A   Clear
10:35 AM 41.0 °F 38.0 °F 24.8 °F 53% 30.45 in 10.0 mi SSW 4.6 mph - N/A   Clear
10:55 AM 44.6 °F 43.1 °F 23.0 °F 43% 30.45 in 10.0 mi South 3.5 mph - N/A   Clear
11:15 AM 46.4 °F 44.3 °F 23.0 °F 40% 30.44 in 10.0 mi South 4.6 mph - N/A   Clear
11:35 AM 48.2 °F - 21.2 °F 34% 30.44 in 10.0 mi SSW 6.9 mph - N/A   Clear
11:55 AM 50.0 °F - 19.4 °F 30% 30.43 in 10.0 mi South 6.9 mph - N/A   Clear
12:15 PM 51.8 °F - 17.6 °F 26% 30.42 in 10.0 mi South 9.2 mph - N/A   Clear
12:35 PM 53.6 °F - 15.8 °F 22% 30.41 in 10.0 mi SSE 6.9 mph - N/A   Clear
12:55 PM 53.6 °F - 15.8 °F 22% 30.39 in 10.0 mi SSW 5.8 mph - N/A   Clear
1:15 PM 55.4 °F - 15.8 °F 21% 30.38 in 10.0 mi South 6.9 mph - N/A   Clear
1:35 PM 53.6 °F - 15.8 °F 22% 30.37 in 10.0 mi SW 10.4 mph - N/A   Clear
1:55 PM 55.4 °F - 15.8 °F 21% 30.35 in 10.0 mi SW 9.2 mph - N/A   Clear
2:15 PM 55.4 °F - 15.8 °F 21% 30.33 in 10.0 mi SW 9.2 mph 18.4 mph N/A   Clear
2:35 PM 57.2 °F - 15.8 °F 20% 30.32 in 10.0 mi West 8.1 mph - N/A   Clear
2:55 PM 57.2 °F - 15.8 °F 20% 30.31 in 10.0 mi Calm Calm - N/A   Clear
3:15 PM 57.2 °F - 15.8 °F 20% 30.31 in 10.0 mi WSW 11.5 mph - N/A   Clear
3:35 PM 57.2 °F - 15.8 °F 20% 30.30 in 10.0 mi SW 11.5 mph - N/A   Clear
3:55 PM 59.0 °F - 15.8 °F 19% 30.29 in 10.0 mi SW 9.2 mph - N/A   Clear
4:15 PM 59.0 °F - 15.8 °F 19% 30.29 in 10.0 mi WSW 8.1 mph - N/A   Clear
4:35 PM 59.0 °F - 15.8 °F 19% 30.28 in 10.0 mi WSW 12.7 mph - N/A   Clear
4:55 PM 57.2 °F - 15.8 °F 20% 30.28 in 10.0 mi SW 10.4 mph - N/A   Clear
5:15 PM 57.2 °F - 15.8 °F 20% 30.27 in 10.0 mi SW 9.2 mph - N/A   Clear
5:35 PM 57.2 °F - 14.0 °F 18% 30.26 in 10.0 mi SW 9.2 mph - N/A   Clear
5:55 PM 55.4 °F - 12.2 °F 18% 30.26 in 10.0 mi WSW 9.2 mph - N/A   Clear
6:15 PM 55.4 °F - 12.2 °F 18% 30.25 in 10.0 mi WSW 6.9 mph - N/A   Clear
6:35 PM 51.8 °F - 10.4 °F 19% 30.26 in 10.0 mi WSW 8.1 mph - N/A   Clear
6:55 PM 46.4 °F 43.5 °F 8.6 °F 22% 30.25 in 10.0 mi WSW 5.8 mph - N/A   Clear
7:15 PM 44.6 °F 40.7 °F 6.8 °F 21% 30.26 in 10.0 mi WSW 6.9 mph - N/A   Clear
7:35 PM 42.8 °F 38.6 °F 8.6 °F 25% 30.26 in 10.0 mi SSW 6.9 mph - N/A   Clear
7:55 PM 41.0 °F 36.4 °F 8.6 °F 26% 30.26 in 10.0 mi SSW 6.9 mph - N/A   Clear
8:15 PM 39.2 °F 34.2 °F 8.6 °F 28% 30.26 in 10.0 mi SW 6.9 mph - N/A   Clear
8:35 PM 37.4 °F - 6.8 °F 28% 30.26 in 10.0 mi Calm Calm - N/A   Clear
8:55 PM 37.4 °F 34.9 °F 6.8 °F 28% 30.26 in 10.0 mi West 3.5 mph - N/A   Clear
9:15 PM 30.2 °F - 3.2 °F 32% 30.26 in 10.0 mi Calm Calm - N/A   Clear
9:35 PM 30.2 °F 25.4 °F 5.0 °F 34% 30.26 in 10.0 mi NNW 4.6 mph - N/A   Clear
9:55 PM 28.4 °F 23.3 °F 5.0 °F 37% 30.26 in 10.0 mi WNW 4.6 mph - N/A   Clear
10:15 PM 28.4 °F 22.2 °F 6.8 °F 40% 30.26 in 10.0 mi WNW 5.8 mph - N/A   Clear
10:35 PM 28.4 °F 23.3 °F 6.8 °F 40% 30.25 in 10.0 mi NW 4.6 mph - N/A   Clear
10:55 PM 24.8 °F 20.5 °F 3.2 °F 40% 30.25 in 10.0 mi NE 3.5 mph - N/A   Clear
11:15 PM 26.6 °F 20.0 °F 5.0 °F 40% 30.25 in 10.0 mi NNE 5.8 mph - N/A   Clear
11:35 PM 26.6 °F 21.2 °F 5.0 °F 40% 30.24 in 10.0 mi North 4.6 mph - N/A   Clear
11:55 PM 24.8 °F 20.5 °F 3.2 °F 40% 30.24 in 10.0 mi NNW 3.5 mph - N/A   Clear